TimeCEST,TemperatureF,Dew PointF,Humidity,Sea Level PressureIn,VisibilityMPH,Wind Direction,Wind SpeedMPH,Gust SpeedMPH,PrecipitationIn,Events,Conditions,WindDirDegrees,DateUTC
12:00 AM,64.4,62.6,94,30.18,2.5,Calm,Calm,-,N/A,,Mostly Cloudy,0,2012-10-01 22:00:00
12:30 AM,64.4,62.6,94,30.18,2.5,Calm,Calm,-,N/A,,Scattered Clouds,0,2012-10-01 22:30:00
1:00 AM,64.4,64.4,100,30.18,2.5,Calm,Calm,-,N/A,,Scattered Clouds,0,2012-10-01 23:00:00
1:30 AM,64.4,64.4,100,30.15,2.5,East,1.2,-,N/A,,Scattered Clouds,100,2012-10-01 23:30:00
2:00 AM,66,64,90,30.17,2,East,2.3,,,,Mist,100,2012-10-02 00:00:00
2:00 AM,66.2,64.4,94,30.15,2.5,East,2.3,-,N/A,,Mostly Cloudy,100,2012-10-02 00:00:00
2:30 AM,66.2,62.6,88,30.15,2.5,Variable,1.2,-,N/A,,Mostly Cloudy,0,2012-10-02 00:30:00
3:00 AM,66.2,62.6,88,30.15,2.5,East,2.3,-,N/A,,Mostly Cloudy,80,2012-10-02 01:00:00
3:30 AM,66.2,62.6,88,30.15,3.1,Variable,1.2,-,N/A,,Mostly Cloudy,0,2012-10-02 01:30:00
4:00 AM,64.4,62.6,94,30.15,3.1,WNW,2.3,-,N/A,,Mostly Cloudy,300,2012-10-02 02:00:00
4:30 AM,64.4,62.6,94,30.15,3.1,WNW,3.5,-,N/A,,Mostly Cloudy,300,2012-10-02 02:30:00
5:00 AM,62.6,62.6,100,30.15,3.1,NW,3.5,-,N/A,,Mostly Cloudy,310,2012-10-02 03:00:00
5:30 AM,62.6,60.8,94,30.15,3.1,NW,5.8,-,N/A,,Mostly Cloudy,310,2012-10-02 03:30:00
6:00 AM,62.6,60.8,94,30.15,3.1,NW,5.8,-,N/A,,Scattered Clouds,310,2012-10-02 04:00:00
6:30 AM,62.6,60.8,94,30.15,3.1,WNW,8.1,-,N/A,,Scattered Clouds,300,2012-10-02 04:30:00
7:30 AM,60.8,59.0,94,30.15,3.1,West,9.2,-,N/A,,Scattered Clouds,280,2012-10-02 05:30:00
8:00 AM,62,60,90,30.16,3,NW,4.6,,,,Mist,310,2012-10-02 06:00:00
8:00 AM,60.8,59.0,94,30.15,3.1,NW,4.6,-,N/A,,Scattered Clouds,310,2012-10-02 06:00:00
8:10 AM,60.8,59.0,94,30.15,1.9,WNW,6.9,-,N/A,,Scattered Clouds,300,2012-10-02 06:10:00
8:30 AM,60.8,59.0,94,30.15,1.9,WNW,6.9,-,N/A,,Scattered Clouds,300,2012-10-02 06:30:00
9:00 AM,60.8,59.0,94,30.15,2.5,NW,3.5,-,N/A,,Scattered Clouds,310,2012-10-02 07:00:00
9:30 AM,62.6,60.8,94,30.18,2.5,WNW,8.1,-,N/A,,Scattered Clouds,290,2012-10-02 07:30:00
10:00 AM,64.4,60.8,88,30.18,2.5,WNW,6.9,-,N/A,,Partly Cloudy,300,2012-10-02 08:00:00
10:30 AM,64.4,60.8,88,30.18,3.1,WNW,8.1,-,N/A,,Partly Cloudy,300,2012-10-02 08:30:00
11:00 AM,68.0,60.8,78,30.18,5.0,WNW,5.8,-,N/A,,Partly Cloudy,290,2012-10-02 09:00:00
11:30 AM,69.8,60.8,73,30.18,5.6,WNW,3.5,-,N/A,,Partly Cloudy,300,2012-10-02 09:30:00
12:00 PM,73.4,59.0,61,30.18,6.2,Calm,Calm,-,N/A,,Partly Cloudy,0,2012-10-02 10:00:00
12:30 PM,73.4,57.2,57,30.18,-9999.0,Calm,Calm,-,N/A,,Clear,0,2012-10-02 10:30:00
1:00 PM,73.4,57.2,57,30.18,6.2,ESE,5.8,-,N/A,,Partly Cloudy,120,2012-10-02 11:00:00
1:30 PM,73.4,59.0,61,30.18,6.2,SE,8.1,-,N/A,,Partly Cloudy,140,2012-10-02 11:30:00
2:00 PM,74,57,45,30.17,19,SSE,6.9,,,,Scattered Clouds,150,2012-10-02 12:00:00
2:00 PM,73.4,57.2,57,30.15,6.2,SSE,6.9,-,N/A,,Partly Cloudy,150,2012-10-02 12:00:00
2:30 PM,73.4,57.2,57,30.15,6.2,SE,8.1,-,N/A,,Partly Cloudy,130,2012-10-02 12:30:00
3:00 PM,73.4,57.2,57,30.15,6.2,SE,8.1,-,N/A,,Partly Cloudy,130,2012-10-02 13:00:00
3:30 PM,73.4,57.2,57,30.15,6.2,SE,8.1,-,N/A,,Partly Cloudy,140,2012-10-02 13:30:00
4:00 PM,75.2,57.2,53,30.12,6.2,SE,9.2,-,N/A,,Partly Cloudy,130,2012-10-02 14:00:00
5:00 PM,73.4,57.2,57,30.12,6.2,SE,8.1,-,N/A,,Partly Cloudy,140,2012-10-02 15:00:00
5:30 PM,73.4,59.0,61,30.12,-9999.0,SE,8.1,-,N/A,,Clear,140,2012-10-02 15:30:00
6:00 PM,71.6,59.0,64,30.12,-9999.0,SE,9.2,-,N/A,,Clear,130,2012-10-02 16:00:00
7:00 PM,71.6,60.8,69,30.12,-9999.0,ESE,8.1,-,N/A,,Clear,120,2012-10-02 17:00:00
7:30 PM,69.8,60.8,73,30.12,-9999.0,SE,8.1,-,N/A,,Clear,130,2012-10-02 17:30:00
8:00 PM,69,63,76,30.13,19,ESE,6.9,,,,Clear,110,2012-10-02 18:00:00
8:00 PM,68.0,62.6,83,30.12,-9999.0,ESE,6.9,-,N/A,,Clear,110,2012-10-02 18:00:00
8:30 PM,66.2,64.4,94,30.12,-9999.0,East,8.1,-,N/A,,Clear,90,2012-10-02 18:30:00
9:00 PM,66.2,64.4,94,30.12,-9999.0,East,8.1,-,N/A,,Clear,90,2012-10-02 19:00:00
9:30 PM,66.2,64.4,94,30.15,-9999.0,East,5.8,-,N/A,,Clear,100,2012-10-02 19:30:00
10:00 PM,64.4,62.6,94,30.15,-9999.0,Calm,Calm,-,N/A,,Clear,0,2012-10-02 20:00:00
10:30 PM,64.4,62.6,94,30.15,-9999.0,Calm,Calm,-,N/A,,Clear,0,2012-10-02 20:30:00
11:00 PM,64.4,62.6,94,30.15,-9999.0,West,3.5,-,N/A,,Clear,260,2012-10-02 21:00:00
11:30 PM,64.4,60.8,88,30.15,-9999.0,Variable,2.3,-,N/A,,Clear,0,2012-10-02 21:30:00